Weather History for KMTH - September, 2012

Change the Weather History Date:

Sunday, September 16, 2012

  Actual Average Record
Temperature  
Mean Temperature 81 °F 84 °F  
Max Temperature 86 °F 89 °F 92 °F (2006)
Min Temperature 76 °F 79 °F 74 °F (2013)
Degree Days  
Heating Degree Days 0 0  
Month to date heating degree days 0 0  
Since 1 July heating degree days 0 0  
Cooling Degree Days 16 19  
Month to date cooling degree days 327 307  
Year to date cooling degree days 3986 3693  
Growing Degree Days 30 (Base 50)    
Moisture  
Dew Point 75 °F    
Average Humidity 77    
Maximum Humidity 85    
Minimum Humidity 69    
Precipitation  
Precipitation 0.08 in 0.31 in 2.55 in (2010)
Month to date precipitation 1.49 4.36  
Year to date precipitation 36.85 33.18  
Snow  
Snow 0.00 in - - ()
Month to date snowfall 0.0  
Since 1 July snowfall 0.0  
Since 1 September snowfall 0.0  
Snow Depth 0.00 in    
Sea Level Pressure  
Sea Level Pressure 29.99 in    
Wind  
Wind Speed 6 mph (ESE)    
Max Wind Speed 12 mph    
Max Gust Speed 20 mph    
Visibility 9 miles    
Events Rain    
T = Trace of Precipitation, MM = Missing Value Source: NWS Daily Summary

Daily Weather History Graph

Daily Weather History Graph

Search for Another Location

Airport or City:

Trip Planner

Search our weather history database for the weather conditions in past years. The results will help you decide how hot, cold, wet, or windy it might be!

Date:

Astronomy

Sep. 16, 2012 Rise Set
Actual Time 7:10 AM EDT 7:26 PM EDT
Civil Twilight 6:48 AM EDT 7:49 PM EDT
Nautical Twilight 6:21 AM EDT 8:15 PM EDT
Astronomical Twilight 5:54 AM EDT 8:42 PM EDT
Moon 7:38 AM EDT (9/16) 7:44 PM EDT (9/16)
Length of Visible Light 13h 01m
Length of Day
12h 15m
New Moon, 0% of the Moon is Illuminated
Sep 16
New Moon
Sep 22
First Quarter
Sep 29
Full
Oct 8
Last Quarter
Oct 15
New

Hourly Weather History & Observations

Time (EDT) Temp. Heat Index Dew Point Humidity Pressure Visibility Wind Dir Wind Speed Gust Speed Precip Events Conditions
12:53 AM 82.9 °F 90.8 °F 75.9 °F 79% 30.01 in 10.0 mi East 8.1 mph - N/A   Clear
1:53 AM 82.0 °F 90.2 °F 77.0 °F 85% 30.00 in 10.0 mi East 8.1 mph - N/A   Partly Cloudy
2:53 AM 82.0 °F 90.2 °F 77.0 °F 85% 29.98 in 10.0 mi ESE 6.9 mph - N/A   Clear
3:53 AM 82.0 °F 89.4 °F 75.9 °F 82% 29.97 in 10.0 mi ESE 5.8 mph - N/A   Partly Cloudy
4:45 AM 82.4 °F 90.9 °F 77.0 °F 84% 29.96 in 10.0 mi SSE 8.1 mph - N/A   Mostly Cloudy
4:53 AM 81.0 °F 87.3 °F 75.9 °F 85% 29.96 in 10.0 mi SSE 5.8 mph - N/A   Mostly Cloudy
5:41 AM 77.0 °F - 75.2 °F 94% 29.98 in 3.0 mi SE 6.9 mph 19.6 mph 0.03 in Rain Rain
5:49 AM 77.0 °F - 75.2 °F 94% 29.98 in 2.5 mi SSE 6.9 mph - 0.07 in Rain Heavy Rain
5:53 AM 75.9 °F - 75.0 °F 97% 29.98 in 4.0 mi SE 4.6 mph - 0.08 in Rain Light Rain
6:53 AM 78.1 °F - 73.9 °F 87% 29.98 in 10.0 mi SE 6.9 mph - 0.00 in   Clear
7:53 AM 80.1 °F 84.5 °F 73.9 °F 81% 29.99 in 10.0 mi ESE 6.9 mph - N/A   Clear
8:53 AM 82.0 °F 88.6 °F 75.0 °F 79% 30.00 in 10.0 mi SE 6.9 mph - N/A   Clear
9:53 AM 82.0 °F 89.4 °F 75.9 °F 82% 30.02 in 10.0 mi Variable 3.5 mph - N/A   Scattered Clouds
10:01 AM 82.4 °F 89.5 °F 75.2 °F 79% 30.02 in 10.0 mi East 8.1 mph - N/A   Mostly Cloudy
10:12 AM 82.4 °F 89.5 °F 75.2 °F 79% 30.02 in 10.0 mi East 6.9 mph - N/A   Scattered Clouds
10:53 AM 84.0 °F 91.2 °F 73.9 °F 72% 30.02 in 10.0 mi East 8.1 mph - N/A   Partly Cloudy
11:53 AM 84.9 °F 93.3 °F 75.0 °F 72% 30.01 in 10.0 mi ESE 5.8 mph - N/A   Partly Cloudy
12:53 PM 84.0 °F 91.2 °F 73.9 °F 72% 30.02 in 10.0 mi ESE 6.9 mph - N/A   Scattered Clouds
1:53 PM 84.9 °F 92.1 °F 73.9 °F 69% 30.01 in 10.0 mi ESE 6.9 mph - N/A   Mostly Cloudy
2:53 PM 84.9 °F 92.1 °F 73.9 °F 69% 29.98 in 10.0 mi Variable 6.9 mph - N/A   Partly Cloudy
3:53 PM 84.9 °F 92.1 °F 73.9 °F 69% 29.95 in 10.0 mi Variable 4.6 mph - N/A   Clear
4:53 PM 84.0 °F 91.9 °F 75.0 °F 74% 29.95 in 10.0 mi East 5.8 mph - N/A   Partly Cloudy
5:53 PM 84.0 °F 91.2 °F 73.9 °F 72% 29.96 in 10.0 mi ESE 4.6 mph - N/A   Scattered Clouds
6:53 PM 82.9 °F 89.4 °F 73.9 °F 74% 29.97 in 10.0 mi ESE 6.9 mph - N/A   Partly Cloudy
7:53 PM 82.9 °F 89.4 °F 73.9 °F 74% 29.98 in 10.0 mi ESE 8.1 mph - N/A   Mostly Cloudy
8:53 PM 82.9 °F 88.8 °F 73.0 °F 72% 29.98 in 10.0 mi East 6.9 mph - N/A   Clear
9:53 PM 82.9 °F 87.5 °F 71.1 °F 67% 30.00 in 10.0 mi East 6.9 mph - N/A   Clear
10:53 PM 82.9 °F 87.5 °F 71.1 °F 67% 30.00 in 10.0 mi East 4.6 mph - N/A   Clear
11:53 PM 82.0 °F 87.9 °F 73.9 °F 76% 29.99 in 10.0 mi East 6.9 mph - N/A   Clear